Theta_e
331 331 331 330 330 329 328 327 326 326 325 324 324 323 322 321 320 319 317 314 311 309 308 306 305 302 300 298 297 297 297 297 297 297 297 297 297 297 296 296 296 296 296 296 296 296 296 296 296 296 296 296 296 297 297 297 297 297 297 297 296 296 296 296 296 296 297 296 296 297 297 297 298 298 298 298 299 299 299 299 299 299 299 300 300
329 329 329 328 328 327 327 326 325 324 324 323 323 322 321 320 319 317 315 313 310 307 305 303 301 299 298 297 297 296 297 297 297 297 297 297 297 297 296 296 296 296 296 296 296 296 296 296 296 296 296 296 296 297 297 297 297 297 296 296 296 296 296 296 295 296 296 297 296 297 297 297 297 297 297 298 298 299 299 299 299 299 299 299 300
327 326 325 325 325 324 324 323 323 323 322 322 321 320 319 318 316 314 312 310 307 305 302 300 298 297 297 297 296 296 297 297 297 297 297 298 297 297 296 296 296 296 296 296 295 295 295 295 296 296 296 296 296 296 296 296 296 296 296 296 296 296 296 295 295 295 295 296 296 296 296 297 297 297 297 297 297 298 298 299 299 299 299 299 299
323 323 322 321 321 321 321 321 321 321 320 320 319 318 317 315 313 312 310 307 304 302 299 297 297 297 296 296 296 296 297 297 297 297 297 298 297 296 296 296 296 296 295 295 295 295 295 295 295 295 296 296 296 296 296 296 296 295 295 295 295 295 295 295 295 295 295 295 296 296 296 296 296 297 297 296 297 297 298 298 299 299 299 298 298
320 320 319 318 318 318 319 318 318 317 317 316 316 315 314 313 311 310 307 304 301 299 297 297 297 296 296 296 296 296 297 297 297 297 297 297 296 296 296 296 295 295 295 295 295 295 295 295 295 295 296 296 296 295 295 295 295 295 295 295 295 294 294 295 295 295 295 295 295 296 296 296 296 296 296 296 296 297 297 298 298 298 298 298 298
318 318 317 317 317 316 316 315 314 314 314 314 313 313 312 311 310 307 304 302 299 297 297 296 296 296 296 296 296 296 297 297 297 297 297 296 296 296 296 295 295 295 295 295 295 294 294 294 295 295 295 295 295 295 295 295 295 295 295 295 294 294 294 294 294 294 294 295 295 295 296 296 296 296 296 296 295 296 296 297 298 298 298 298 298
316 316 316 316 315 314 313 313 312 313 312 312 312 311 310 309 307 304 302 299 297 296 296 296 296 296 296 296 296 296 297 297 297 297 297 296 296 296 296 295 295 295 295 295 295 295 294 294 295 295 295 295 295 295 295 295 295 295 295 295 295 294 294 294 294 294 294 294 295 295 295 296 296 296 296 296 295 295 296 296 297 298 297 297 298
315 314 314 314 313 313 312 312 312 312 311 311 310 309 308 307 304 302 299 297 296 296 296 296 296 295 295 296 296 296 296 296 296 296 296 296 296 295 295 295 295 295 295 296 296 295 294 294 294 295 295 295 295 295 295 295 295 295 295 295 295 294 294 294 294 294 294 294 294 295 295 296 296 296 296 296 295 296 296 295 296 296 297 297 296
314 313 313 313 313 312 312 312 311 311 311 310 309 308 307 305 302 300 299 296 296 296 295 295 295 295 296 295 296 296 296 296 296 296 296 296 295 295 295 295 295 295 296 296 296 295 294 294 294 295 295 295 295 295 295 295 295 295 295 295 294 294 294 294 293 293 294 294 294 295 295 296 296 296 296 296 295 295 295 295 295 295 296 296 296
314 313 312 312 312 312 311 311 310 310 310 309 308 306 304 303 301 300 298 296 295 295 295 295 295 295 295 295 295 295 295 295 295 295 296 296 295 296 296 295 295 296 297 297 296 295 294 294 294 295 295 295 294 295 295 295 295 295 295 295 294 294 294 293 293 293 294 294 294 295 295 296 296 296 296 295 295 295 295 295 295 295 295 296 296
313 312 312 312 312 312 311 311 310 308 308 307 306 305 303 302 302 300 297 295 295 295 295 295 295 295 295 295 295 295 295 295 295 295 295 295 296 296 296 295 296 297 297 297 296 296 295 294 294 295 295 295 294 294 295 295 295 295 295 294 294 294 294 293 293 293 294 294 295 295 296 296 296 296 296 295 295 295 295 295 295 296 296 296 296
313 312 312 311 311 311 311 310 309 308 307 306 306 305 304 303 302 299 297 295 295 295 295 295 295 295 295 295 295 295 295 295 295 295 295 295 296 296 296 296 296 297 297 297 296 296 295 294 294 295 295 295 295 294 295 294 294 294 294 294 294 294 293 292 293 294 294 294 295 295 296 296 296 296 296 295 295 295 295 295 295 296 296 296 296
313 312 311 311 311 311 310 310 309 308 307 307 306 305 304 303 301 298 295 295 295 295 295 295 295 295 295 295 295 295 295 295 295 295 295 295 296 296 297 296 296 296 296 296 296 295 294 294 295 295 295 295 295 295 295 294 294 294 293 293 293 293 292 292 293 294 294 294 295 296 296 296 296 296 296 295 295 295 295 295 295 295 295 296 295
314 312 311 311 311 310 310 309 308 308 307 306 305 304 303 301 299 297 296 295 295 295 295 295 295 295 295 295 295 295 295 295 295 295 295 295 295 296 297 296 296 296 296 296 295 295 294 294 295 295 295 295 295 295 294 294 294 293 293 293 292 292 292 292 293 293 294 294 295 296 296 296 296 296 296 296 295 295 295 295 295 295 295 295 295
314 311 310 311 310 310 309 308 307 307 306 305 304 303 303 301 299 299 297 295 294 295 295 295 295 295 295 295 295 295 295 295 295 295 294 294 295 296 296 296 295 295 295 296 295 294 294 294 294 294 294 295 295 295 294 294 293 293 292 292 292 292 292 292 293 293 294 294 295 295 295 295 296 296 296 296 295 295 295 295 295 295 295 295 294
314 311 310 310 310 309 308 307 306 306 306 305 304 303 303 301 300 300 298 295 294 295 294 295 295 295 295 295 295 295 295 295 294 294 294 294 294 295 295 295 295 295 295 295 294 294 294 294 294 294 294 294 295 294 294 293 292 292 292 292 292 292 292 292 293 293 293 294 294 295 295 295 295 296 296 296 296 296 296 296 296 295 295 295 294
315 311 310 310 310 309 307 306 306 305 305 304 303 303 303 302 300 300 298 295 294 294 294 295 295 295 295 295 294 295 295 295 294 294 294 294 294 294 294 294 294 295 294 294 294 294 294 294 294 293 293 294 294 293 293 292 292 292 292 292 292 292 292 292 293 293 293 293 294 295 295 295 295 296 296 296 297 296 296 296 295 295 295 294 294
315 312 311 310 309 308 307 307 306 306 305 303 302 303 303 301 300 300 298 295 294 294 294 294 295 295 294 294 294 294 295 294 294 294 293 293 293 293 293 294 294 294 294 293 294 294 294 293 293 293 293 293 293 292 292 292 292 292 292 292 292 292 292 292 292 293 293 293 294 294 294 295 295 296 296 296 297 297 296 295 295 295 295 294 293
314 313 311 310 308 306 307 307 306 305 304 302 301 302 302 301 299 299 298 296 294 294 294 294 295 294 294 294 294 294 294 294 294 294 293 293 293 293 293 293 294 293 293 293 294 294 293 293 293 292 292 292 292 292 292 292 292 292 292 292 292 292 292 292 292 292 293 293 293 294 294 295 295 296 296 296 297 297 297 296 296 295 294 294 293
314 312 310 310 307 305 306 306 305 304 303 301 300 300 300 300 299 298 297 296 294 294 294 294 294 294 294 294 294 294 294 294 294 293 293 293 293 293 293 293 293 293 293 293 293 293 293 293 292 292 292 292 292 292 292 292 292 292 292 292 292 292 291 292 292 292 292 293 293 293 294 295 295 296 296 296 296 297 297 297 296 295 294 294 293
313 311 310 309 306 304 304 304 303 302 302 301 301 300 299 299 298 297 296 295 294 294 294 294 294 294 294 294 294 294 294 293 293 293 293 293 293 293 293 293 293 293 293 293 293 293 293 293 292 292 292 292 292 292 292 292 292 291 291 291 291 291 291 291 292 292 292 292 293 293 294 295 295 295 296 296 296 296 297 297 297 296 295 294 293
312 311 310 308 305 303 303 303 302 302 301 301 300 299 298 297 296 295 295 294 293 293 294 293 293 294 294 294 293 293 293 293 293 293 293 293 293 293 293 293 293 293 293 293 293 293 293 292 292 292 291 291 291 291 291 291 291 291 291 291 291 291 291 291 291 291 292 292 293 293 294 295 295 295 295 295 295 296 296 297 297 297 296 295 294
312 310 310 307 303 301 302 303 303 302 300 299 298 297 296 295 294 294 294 294 293 293 293 293 293 293 294 294 293 293 293 293 293 293 293 293 293 292 292 293 293 293 293 293 293 292 292 292 292 291 291 291 291 291 291 291 291 290 290 290 291 291 291 291 291 291 291 292 293 294 294 294 294 294 295 295 295 295 296 297 297 297 297 296 295
311 310 309 306 302 301 303 304 303 301 298 296 296 296 295 294 293 293 293 293 293 293 293 293 293 293 294 294 293 293 293 293 293 293 293 293 292 292 293 293 293 293 292 292 292 292 292 292 292 291 291 291 291 291 291 291 291 291 291 291 291 291 291 291 291 291 291 292 293 294 294 294 294 294 294 294 295 295 296 296 297 297 298 298 296
311 310 308 304 301 302 304 304 303 299 296 296 296 295 294 293 293 293 293 293 293 293 293 293 293 293 294 294 293 293 293 293 293 293 293 293 292 292 293 293 293 293 292 292 292 292 292 292 292 291 291 291 291 291 291 291 291 291 291 291 291 291 291 291 291 290 290 291 293 294 294 294 294 294 294 294 294 295 295 295 296 297 297 298 298
310 309 306 303 302 303 304 303 301 297 296 296 296 295 294 294 293 293 293 293 293 293 293 294 293 293 293 293 293 293 293 293 293 293 293 293 293 292 293 293 293 293 293 293 293 293 292 292 292 292 292 291 291 291 292 292 292 292 292 292 292 291 291 290 290 290 290 291 292 293 294 294 294 294 294 294 294 294 295 295 295 296 296 297 298
310 308 305 303 303 303 303 302 299 297 298 297 296 295 295 295 294 294 294 294 295 295 295 295 294 294 293 293 293 293 293 293 293 293 293 293 293 293 293 293 293 293 293 293 293 293 293 292 292 292 292 292 292 292 292 293 293 293 293 293 293 292 291 291 290 290 290 290 291 293 293 293 294 294 294 294 294 294 294 294 295 295 295 296 297
310 307 304 303 303 303 301 299 298 298 298 297 296 296 297 296 295 295 295 296 296 297 297 296 295 295 294 293 293 293 293 293 293 293 293 293 293 293 293 293 293 293 294 294 294 294 293 293 293 293 293 293 293 293 293 293 293 293 294 294 293 293 293 292 292 291 290 290 290 291 292 293 293 294 294 294 294 294 294 294 294 295 295 295 296
309 306 304 304 303 301 299 299 298 298 297 297 297 298 299 298 297 297 297 297 297 297 297 297 296 296 295 294 293 293 293 293 293 293 293 293 293 293 293 293 294 294 294 294 294 294 294 293 293 293 293 293 293 293 293 294 294 294 294 294 294 294 293 293 293 292 291 290 289 290 291 292 293 293 294 294 294 294 294 294 294 294 294 294 295
308 305 305 304 302 300 299 299 299 298 297 298 299 300 300 299 298 298 298 298 298 298 298 298 297 297 296 295 294 293 293 293 293 292 292 293 293 294 294 294 294 294 294 294 294 294 294 294 294 294 293 293 293 293 294 294 294 294 294 294 294 294 294 293 293 292 292 291 290 289 290 291 292 293 293 294 294 294 294 294 294 294 294 294 294
307 305 305 304 302 300 300 300 299 298 298 299 300 300 300 300 300 300 300 300 299 299 299 299 299 298 297 296 295 294 293 293 293 292 292 293 294 294 294 295 295 295 295 295 294 294 294 294 294 294 293 293 293 293 294 294 294 294 294 294 294 294 294 293 293 292 292 292 292 291 290 290 291 292 293 293 294 294 294 294 294 294 294 294 294
306 305 304 303 301 301 301 300 299 298 299 300 299 300 300 300 301 301 301 300 300 300 299 299 299 298 297 296 295 294 293 293 293 292 292 293 294 294 295 295 296 295 295 295 295 295 294 294 294 294 293 293 293 293 293 293 293 293 294 294 294 294 294 293 293 292 292 292 292 292 291 290 290 291 292 293 293 293 294 294 294 294 294 294 294
306 305 303 302 301 301 301 300 299 298 299 299 299 300 300 301 301 301 301 300 300 300 300 299 299 299 298 296 294 293 293 293 293 292 292 293 293 294 295 295 295 295 295 295 295 295 295 295 294 294 294 294 293 293 293 293 293 293 293 294 294 294 293 293 293 293 293 292 292 292 292 291 290 290 290 291 292 293 293 294 294 294 294 294 294
307 305 303 302 302 301 301 300 299 299 299 299 299 300 301 301 300 300 300 300 300 300 300 299 300 300 298 295 294 293 293 293 293 293 292 293 293 294 295 296 296 296 296 296 296 296 296 296 295 295 295 295 295 294 293 293 293 293 293 294 294 294 294 294 293 293 293 293 292 292 293 292 291 290 290 290 291 292 293 293 294 294 294 294 294
306 303 302 302 302 301 301 301 300 299 299 299 299 300 300 300 300 300 300 300 300 300 300 300 300 299 297 295 293 293 293 293 293 293 293 293 294 294 295 295 296 296 296 296 296 296 296 296 296 296 296 296 296 296 295 293 293 293 293 294 294 294 294 294 294 294 294 293 293 293 293 293 293 292 290 290 290 291 292 293 293 293 294 294 294
305 303 301 302 302 301 301 301 300 299 298 299 300 300 300 301 301 301 301 301 301 300 300 300 300 299 296 294 293 293 293 293 293 293 293 293 294 294 295 295 296 296 296 296 297 297 296 296 296 296 296 296 297 297 296 295 293 293 293 294 294 294 294 294 295 294 294 294 293 293 293 293 293 293 292 291 290 290 291 292 292 293 294 294 294
306 303 302 302 301 301 301 301 300 299 299 300 301 301 301 302 302 302 301 301 301 300 300 300 300 298 296 294 293 293 293 293 293 293 293 294 294 295 295 296 296 296 296 296 297 297 297 297 297 297 297 297 297 297 297 295 294 293 293 293 294 294 294 294 294 294 295 294 294 293 293 293 293 293 293 293 291 290 290 291 291 292 292 294 294
306 304 303 302 302 301 301 301 300 299 299 301 301 302 302 302 302 301 301 302 301 299 298 299 298 296 294 293 293 293 294 295 295 296 295 295 296 297 297 297 297 297 297 297 297 297 297 297 297 297 297 297 297 297 297 296 295 293 293 293 293 293 293 293 294 294 294 294 295 294 294 294 293 293 294 294 293 291 290 290 291 291 291 292 293
306 304 303 303 302 301 301 301 300 299 300 301 302 302 302 302 301 302 302 301 298 296 295 296 295 294 294 295 295 296 296 297 298 298 297 297 298 298 298 298 298 297 297 296 297 297 297 297 298 297 297 297 297 297 297 297 296 295 294 293 293 293 293 293 293 293 294 294 294 295 295 295 294 294 294 294 294 293 292 291 290 290 290 291 292
305 304 303 303 302 301 301 301 299 299 300 302 302 302 302 301 302 302 300 298 296 294 294 294 294 295 296 297 297 298 299 299 299 299 299 299 299 299 299 298 298 298 297 297 297 297 297 297 298 297 297 297 297 297 297 297 296 296 295 294 294 293 293 293 293 293 293 293 293 294 295 295 295 295 295 294 294 294 293 292 291 291 290 290 291
305 304 303 302 301 301 301 300 299 299 301 302 302 302 302 302 302 301 299 297 297 296 296 295 296 297 298 298 299 299 299 299 299 299 299 300 299 299 299 299 298 298 298 297 297 296 297 297 298 297 297 297 297 297 297 297 297 297 296 296 295 294 294 294 293 293 294 294 294 293 293 294 295 295 295 295 295 294 294 294 293 292 291 291 290
305 304 303 302 301 301 300 300 299 299 301 302 302 302 302 302 301 300 300 299 299 299 298 298 299 299 299 300 300 300 299 299 299 299 299 300 300 299 299 299 298 298 298 298 297 297 297 298 298 297 297 297 297 297 297 297 297 297 297 296 296 296 296 295 295 295 295 296 296 295 293 293 294 295 295 295 295 295 294 295 294 293 293 292 291
305 305 303 302 301 300 300 300 299 300 301 302 302 302 303 302 300 300 301 301 300 300 300 300 300 300 300 300 300 300 300 299 299 299 300 300 299 299 299 298 298 298 298 298 298 298 298 298 298 298 298 298 298 298 298 298 297 297 297 297 297 297 297 297 296 296 297 297 297 296 295 293 293 294 294 295 295 295 295 295 295 294 294 293 292
305 304 303 302 301 300 300 300 300 301 301 302 302 302 302 301 300 300 301 302 301 301 300 300 300 300 300 300 300 300 300 300 300 300 300 299 299 299 299 298 298 298 298 298 298 298 298 298 298 298 298 298 298 298 298 298 298 298 297 297 297 297 297 297 297 297 297 297 297 297 296 294 293 293 294 294 295 295 295 295 295 295 295 294 294
304 304 302 301 301 300 301 301 301 301 301 301 302 302 302 301 301 301 301 301 301 301 301 300 300 300 300 300 300 300 300 299 299 299 299 299 299 299 299 298 298 298 298 298 298 298 298 298 298 298 298 298 298 298 298 298 298 298 298 298 298 297 297 297 297 297 297 297 297 297 296 295 294 293 293 293 294 295 295 295 295 295 295 295 295
303 303 302 301 300 301 301 301 301 301 301 301 302 302 301 301 301 301 301 301 301 301 301 300 300 300 300 300 300 300 299 299 299 299 299 299 299 298 298 298 298 298 299 298 299 298 298 298 299 299 299 299 299 299 299 298 298 298 298 298 298 298 298 297 297 297 297 297 297 297 297 296 295 294 293 293 293 294 294 295 295 295 295 295 295
303 303 302 301 300 300 301 301 301 301 301 301 302 302 302 302 301 301 301 301 301 301 301 301 300 301 301 300 300 300 299 299 299 299 299 299 299 298 298 298 298 298 298 298 298 299 299 299 299 299 299 299 299 299 299 299 298 298 298 298 298 298 298 298 297 297 297 297 297 297 297 296 296 295 295 294 293 293 293 294 294 294 295 295 295
303 303 303 301 300 301 301 301 300 300 300 301 302 302 302 301 301 301 301 301 301 301 301 301 301 301 300 300 300 300 299 299 299 299 299 299 299 299 299 298 298 298 298 298 299 299 299 299 299 299 299 299 299 299 299 299 299 298 298 298 298 298 298 298 298 297 297 297 297 297 297 297 297 296 296 295 294 294 294 293 293 293 294 294 294
304 304 302 301 301 301 300 300 299 299 300 301 302 302 301 301 301 301 301 301 301 301 301 301 301 300 300 300 300 300 300 299 299 299 299 299 299 299 299 299 299 299 299 299 299 299 299 299 299 299 299 299 299 299 299 299 299 299 299 299 299 298 298 298 298 298 298 298 297 297 297 297 297 297 296 296 296 295 295 294 294 294 293 293 293
304 303 302 301 300 300 299 299 299 300 301 301 302 302 301 301 301 301 301 301 301 301 301 301 301 300 300 300 300 300 300 300 299 299 299 299 299 299 299 299 299 299 299 299 299 299 299 299 299 299 299 299 299 299 299 299 299 300 299 299 299 299 299 299 299 298 298 298 298 298 297 297 297 297 297 297 296 296 296 295 295 295 294 294 294
303 302 301 301 300 300 300 300 300 301 301 302 302 301 301 301 301 301 301 301 301 300 300 300 300 300 300 300 300 300 300 300 300 300 300 300 300 300 299 299 299 299 299 299 299 299 299 299 299 299 299 299 299 299 299 299 299 300 299 300 300 300 300 299 299 299 298 298 298 298 298 298 297 297 297 297 297 297 296 296 296 296 295 295 295
Wind_Speed
21 21 21 21 21 20 19 19 17 17 16 15 16 17 17 16 15 12 9 7 5 5 5 4 3 2 0 0 1 2 2 2 2 2 3 3 5 7 7 6 7 9 10 10 12 12 12 12 13 15 15 16 17 18 20 21 23 24 25 25 24 24 25 25 26 31 32 31 32 34 35 37 37 38 39 40 40 40 41 41 41 40 38 36 34
22 22 22 21 20 20 19 19 18 18 18 18 18 18 18 16 14 10 9 8 7 7 6 4 3 2 1 1 2 2 2 2 2 2 3 4 5 7 7 7 7 9 9 10 11 11 11 12 14 16 17 17 18 19 20 22 23 24 24 23 23 23 23 24 26 30 33 34 34 35 36 37 38 39 40 42 43 43 43 43 43 43 42 40 37
22 23 22 22 21 21 20 20 20 20 20 20 20 19 18 15 12 11 9 8 8 8 6 4 3 3 3 3 3 3 3 2 2 2 3 4 5 6 7 7 7 8 9 10 11 11 12 13 15 16 17 17 18 19 20 21 22 22 23 22 21 21 22 24 26 29 33 34 34 35 37 38 39 40 41 43 44 45 45 45 45 45 45 43 42
22 22 23 22 22 21 21 20 20 20 21 21 20 18 16 14 12 10 8 8 8 7 6 5 4 4 4 4 4 4 3 3 2 2 3 4 5 5 6 7 7 8 9 10 11 12 13 15 16 16 16 17 18 19 20 21 21 21 21 21 21 22 23 23 25 27 31 34 35 35 36 37 39 40 41 43 45 45 46 47 47 48 47 46 46
20 21 21 22 21 20 19 19 19 19 19 19 17 16 15 14 12 9 7 7 7 7 7 6 6 6 5 5 5 5 4 3 2 2 3 4 5 4 4 5 6 7 9 11 13 15 15 16 16 16 16 17 18 19 19 19 19 19 20 21 22 23 24 24 25 26 29 33 35 36 36 37 39 40 40 43 45 46 48 48 49 49 50 49 48
19 20 20 20 19 18 17 17 17 18 18 18 17 16 15 12 10 8 8 6 6 7 7 7 7 7 6 6 6 5 4 3 2 2 3 4 4 4 4 4 5 7 10 13 15 16 16 16 16 16 16 17 17 17 18 18 18 19 20 21 23 24 25 26 27 28 30 32 34 36 37 38 39 41 41 41 42 45 48 51 52 51 50 51 51
17 18 19 18 17 17 17 18 18 18 17 17 16 15 13 11 9 8 8 7 7 7 8 8 8 7 7 7 6 5 4 3 2 2 3 4 4 4 4 5 6 8 10 13 15 16 17 16 15 15 15 16 16 16 17 17 18 19 20 21 22 24 26 27 29 30 31 32 33 35 37 38 39 41 41 41 41 42 45 50 54 54 52 51 51
17 18 18 18 18 19 19 18 18 17 16 16 15 14 13 11 9 8 7 8 8 8 8 8 8 8 8 7 7 6 5 3 2 2 3 4 4 4 5 5 6 8 10 12 14 16 16 15 14 13 13 13 14 14 15 16 17 18 19 20 22 24 27 29 31 32 32 32 33 34 36 38 39 40 42 42 42 43 44 46 50 53 53 52 51
17 19 19 19 20 19 18 18 17 17 16 16 16 15 13 12 10 9 8 8 9 9 9 8 8 8 8 8 7 6 5 4 3 2 2 4 4 4 4 5 6 8 9 11 13 15 15 14 13 11 10 11 11 12 13 15 17 19 20 21 23 26 29 31 32 32 31 32 33 34 36 37 39 41 42 42 41 43 44 45 47 50 51 52 51
18 20 20 19 19 18 18 17 17 18 18 17 17 16 14 13 11 9 8 9 10 10 10 10 9 8 8 8 7 6 5 4 4 3 2 3 4 5 5 5 6 7 8 10 12 13 14 13 12 9 8 10 11 11 12 13 14 17 20 22 24 27 31 33 32 30 30 31 32 33 35 37 38 40 40 41 40 42 44 44 47 49 48 50 53
18 21 20 19 19 19 18 18 18 19 19 18 17 16 15 13 12 10 9 10 11 11 10 10 10 9 8 7 7 7 6 5 4 3 3 3 4 5 5 5 5 6 7 8 11 12 12 12 10 8 9 11 12 13 13 13 14 17 19 21 24 27 30 32 31 28 28 30 31 32 33 36 38 39 39 40 41 42 43 43 45 47 46 46 50
19 20 20 20 20 20 20 19 20 20 19 18 17 16 15 13 11 10 11 12 12 11 11 10 10 10 9 8 8 7 6 5 5 4 4 3 3 5 5 5 5 5 6 8 10 10 10 9 8 8 9 12 13 14 14 16 18 20 21 23 24 26 28 29 27 26 27 29 30 31 32 35 38 39 40 41 42 42 43 43 43 44 43 43 45
18 19 21 22 22 21 21 21 21 21 20 19 18 17 15 13 11 11 12 13 13 12 11 11 11 10 9 8 8 7 7 6 6 5 4 3 2 3 4 4 4 4 5 7 9 9 8 7 6 7 9 12 13 14 16 19 21 22 23 25 26 26 27 27 25 24 25 27 29 29 30 34 38 40 40 40 42 44 44 44 44 43 42 42 44
16 20 23 24 22 22 21 22 22 22 21 20 19 17 16 14 12 12 13 13 13 13 12 12 11 11 10 9 8 8 8 7 7 5 4 3 2 3 3 3 3 4 5 7 9 8 7 6 6 7 10 12 14 16 18 20 22 24 24 26 27 27 28 28 26 25 24 25 27 28 29 32 36 39 40 40 41 43 44 45 45 43 42 42 43
18 22 24 24 23 22 22 22 22 22 21 20 19 18 16 15 13 13 14 14 13 13 13 12 12 11 10 9 9 8 8 8 7 5 4 3 2 2 2 1 2 3 5 7 8 6 6 7 8 9 11 12 13 16 19 21 22 23 25 26 27 28 29 29 28 27 26 25 25 26 29 31 35 38 39 39 40 42 42 43 44 43 43 44 45
20 22 24 25 24 23 23 24 24 23 22 21 20 18 17 15 13 13 14 14 14 14 13 13 12 12 11 10 9 8 8 8 7 6 4 2 2 2 1 1 1 3 4 6 5 5 7 9 10 10 11 12 13 15 18 21 22 23 25 27 28 29 30 29 28 27 27 26 24 25 28 30 34 37 38 38 40 42 43 43 44 43 44 46 47
22 22 24 25 24 23 25 25 25 24 24 22 20 19 19 17 14 13 14 15 15 14 14 13 12 11 11 10 8 7 7 7 7 6 4 2 1 1 1 0 1 2 3 3 3 5 8 9 9 10 11 11 13 15 18 20 22 24 26 27 29 30 31 31 30 29 29 28 26 26 28 30 33 37 38 38 39 43 44 46 46 44 44 48 49
24 24 26 25 24 24 25 26 25 25 24 22 20 21 20 18 15 13 13 14 15 14 14 14 13 12 11 10 9 7 7 7 7 6 5 3 2 0 0 1 1 2 2 1 3 6 7 8 8 10 11 12 13 16 18 20 22 24 27 28 30 31 32 32 32 32 32 31 30 29 29 32 35 38 39 39 40 43 45 46 46 44 44 47 48
25 25 26 26 25 25 25 25 25 25 24 22 21 21 21 18 16 14 14 14 15 15 15 14 13 12 11 10 9 8 7 7 7 7 6 4 2 2 1 1 1 1 0 1 3 5 6 7 9 10 11 12 14 16 18 20 22 24 26 28 30 32 33 33 33 33 34 35 34 34 33 34 37 39 41 41 42 44 45 45 45 44 43 45 46
25 25 27 26 25 24 24 24 23 23 23 22 21 21 20 19 17 16 16 16 16 16 15 14 13 13 12 11 10 9 8 7 7 6 6 5 3 3 3 2 1 1 2 1 2 3 5 7 9 10 12 13 15 17 19 20 22 23 25 27 30 31 32 32 32 32 34 35 36 35 34 36 38 40 43 44 45 46 46 45 45 43 42 43 43
25 27 27 26 25 24 23 22 22 22 22 22 22 21 20 19 18 17 18 18 18 17 16 15 14 14 13 12 10 9 8 7 7 6 6 5 4 4 3 3 3 3 2 1 1 3 5 7 9 11 12 14 16 18 19 20 21 22 24 25 27 29 30 31 32 32 33 34 36 36 35 36 39 42 44 46 47 48 49 48 47 45 43 42 42
27 28 27 25 24 24 23 22 22 21 22 23 23 22 21 20 19 19 20 20 19 18 17 16 16 15 14 13 12 10 9 8 7 6 6 5 4 4 4 4 3 3 2 1 2 3 5 7 10 11 13 14 16 18 19 20 21 22 22 24 25 26 28 30 32 33 33 35 36 36 36 38 41 43 46 48 49 50 51 51 50 48 46 44 41
28 29 26 24 24 24 24 23 22 21 23 24 24 23 22 21 21 21 22 21 20 19 18 17 17 15 15 14 12 11 9 8 8 7 6 5 4 4 4 4 4 3 2 2 2 4 6 8 10 12 13 14 16 17 19 20 21 21 22 23 24 26 27 29 31 33 34 35 36 37 37 39 41 43 46 49 51 51 51 52 52 51 50 47 44
29 29 26 26 26 25 25 24 22 22 24 24 24 24 24 23 23 24 23 22 21 20 19 18 17 15 14 13 12 11 10 9 7 7 6 5 5 5 5 5 4 3 2 2 3 5 7 8 10 12 13 14 15 16 18 19 21 21 22 23 24 25 27 30 32 33 34 35 35 36 37 38 40 42 45 48 50 50 50 51 53 53 52 51 48
30 29 27 27 27 25 25 25 23 23 25 25 25 25 25 25 25 25 24 23 22 21 19 18 16 15 14 13 12 10 9 8 7 7 6 6 6 6 6 5 4 2 2 2 4 5 7 9 10 12 13 14 14 16 18 19 20 21 22 23 24 26 28 30 32 33 34 35 34 34 36 37 38 40 43 45 47 49 50 52 53 54 55 54 52
29 28 29 29 27 26 26 26 25 26 26 25 24 25 26 25 25 25 25 24 22 21 20 18 17 15 14 12 11 10 9 8 8 7 6 6 6 6 5 5 3 2 1 2 4 5 7 8 10 11 12 13 14 16 18 19 20 20 21 23 24 26 28 30 32 33 34 34 33 32 34 35 37 38 40 43 46 49 51 53 54 56 57 57 56
29 29 30 30 28 27 28 28 28 28 27 25 25 26 26 25 25 26 25 24 23 21 19 18 17 16 14 12 11 10 9 9 8 7 6 6 6 6 5 4 3 2 1 1 3 4 6 8 9 10 12 13 14 15 17 19 20 21 22 23 24 25 27 28 30 31 32 33 32 31 32 34 36 37 40 42 45 47 50 53 54 56 57 58 58
29 31 31 30 28 28 29 30 29 28 27 27 28 28 27 26 25 25 24 23 23 22 20 19 17 15 13 12 11 10 10 9 8 7 6 5 6 6 6 5 4 3 1 1 2 4 6 7 8 9 10 11 13 14 16 18 20 22 22 23 24 24 25 26 27 29 30 31 32 32 32 34 35 37 39 41 43 46 48 51 53 54 55 56 57
30 32 32 29 28 30 31 31 30 29 29 29 29 28 27 25 24 23 22 21 20 18 17 15 14 12 11 10 10 9 9 9 8 7 6 6 6 6 6 5 5 4 2 1 2 4 5 6 7 8 10 11 13 15 17 18 20 22 23 24 24 25 25 26 28 29 30 31 32 33 33 34 35 36 38 39 42 44 46 48 50 53 55 55 55
32 33 32 31 30 32 33 31 30 30 31 31 30 28 26 24 23 22 21 19 17 14 12 9 8 9 10 9 9 9 8 8 8 8 7 7 7 7 7 6 6 4 2 0 1 3 5 6 7 9 10 12 14 16 17 19 20 22 23 24 25 25 26 27 28 29 30 31 32 33 33 33 34 35 37 38 40 42 44 45 47 50 53 54 54
33 34 34 32 32 33 33 31 31 33 33 32 30 28 27 26 24 22 20 18 16 14 12 9 7 7 8 9 10 10 10 10 9 9 9 9 9 9 9 8 7 4 2 1 2 3 4 6 7 9 11 13 14 16 17 19 20 21 22 23 24 25 26 27 28 29 30 31 32 32 33 33 34 34 36 37 38 40 42 43 45 47 50 52 53
33 33 33 32 32 33 32 31 33 35 35 33 31 30 29 28 26 24 21 19 18 16 15 13 11 9 9 9 10 11 11 11 10 10 11 11 11 10 10 9 7 5 4 3 3 4 5 6 7 9 11 13 14 15 17 18 19 20 22 22 23 24 25 26 26 28 29 31 32 32 33 33 33 33 34 35 36 38 40 41 43 45 47 48 51
32 32 32 32 33 34 33 32 34 36 36 34 33 32 31 30 27 25 23 22 20 18 17 15 13 11 10 10 11 11 12 12 12 12 12 12 12 12 12 10 8 6 5 4 4 5 6 7 8 9 10 13 14 15 17 18 18 20 21 21 22 22 23 24 25 26 27 29 30 31 32 33 33 33 33 34 35 36 37 39 40 42 44 46 48
31 31 32 33 35 35 34 33 34 35 35 35 34 33 31 29 27 25 24 23 22 21 19 17 16 14 12 11 12 12 13 13 13 13 12 12 12 13 12 11 9 8 7 6 6 6 7 8 8 9 10 12 14 16 17 17 18 19 20 20 21 21 22 22 23 24 26 27 28 30 31 32 33 33 33 33 34 35 36 37 38 39 41 43 45
29 30 32 33 34 35 34 32 33 34 35 36 35 33 31 28 26 25 24 23 22 21 20 19 18 16 14 13 13 14 14 14 14 13 12 12 12 12 12 11 10 9 9 9 8 8 8 9 9 10 10 12 14 16 17 18 18 19 19 20 21 21 21 22 23 24 25 25 26 28 30 30 31 32 32 32 33 33 34 35 36 37 38 40 42
26 29 33 34 32 33 33 32 31 33 35 35 34 32 30 28 26 25 23 22 21 20 19 19 17 16 15 14 15 15 15 15 14 13 12 12 12 11 11 10 10 10 10 10 10 10 10 10 10 11 11 12 13 16 18 18 18 19 19 20 20 21 21 22 23 23 24 25 25 26 28 29 30 31 32 31 31 31 31 32 33 34 35 36 38
25 28 34 34 31 32 33 32 30 31 33 35 33 31 29 27 25 24 23 22 21 20 20 19 18 18 17 17 16 16 15 14 13 12 12 11 10 9 8 8 9 10 11 10 10 11 10 10 11 12 12 12 13 15 17 18 18 19 20 20 20 20 21 21 22 23 24 24 25 25 26 27 28 29 30 31 31 30 30 31 32 32 33 34 35
26 28 32 31 30 31 32 31 30 31 33 34 32 30 28 26 24 22 21 21 21 21 21 21 20 20 19 17 16 16 15 14 12 11 10 9 8 6 6 6 8 10 10 10 11 11 11 10 10 12 13 13 13 14 15 17 18 19 20 20 20 20 21 21 21 22 23 24 25 25 25 26 26 27 28 29 30 30 29 29 30 31 31 32 33
27 28 29 27 27 29 30 29 30 32 34 33 31 29 27 25 24 22 21 21 21 21 21 21 21 20 18 16 16 16 15 13 12 10 9 8 7 6 6 7 9 10 11 11 12 12 12 11 10 12 13 13 13 13 15 17 18 19 20 20 20 21 21 21 21 21 22 24 25 25 26 26 25 25 26 26 28 29 29 28 29 29 29 30 30
28 29 28 27 27 28 28 28 29 32 34 33 30 28 27 25 23 22 21 20 21 21 21 22 21 19 17 16 16 16 13 11 10 9 9 9 9 9 9 9 10 11 12 12 13 13 13 11 10 11 12 13 13 13 14 16 18 19 20 21 21 21 21 21 21 21 22 24 25 25 25 26 25 25 25 24 25 27 27 28 27 27 27 28 27
28 29 29 28 28 28 28 28 30 33 34 32 30 28 27 25 23 22 21 21 20 20 21 22 20 17 15 15 15 14 12 11 10 10 10 11 11 12 12 11 12 12 12 12 12 12 12 10 9 10 11 11 11 12 13 15 16 18 19 19 19 19 19 19 19 20 21 23 24 24 24 24 24 24 24 24 24 24 25 26 26 26 27 27 27
29 29 29 29 29 29 28 28 29 32 33 31 29 29 27 24 23 23 23 22 20 19 19 20 18 15 14 14 13 13 13 13 13 13 12 12 12 13 13 12 12 11 10 9 8 8 8 8 8 8 9 10 10 11 13 14 15 16 17 17 17 18 18 18 18 18 19 21 23 24 24 23 23 22 23 23 23 23 23 24 25 26 26 27 27
29 29 29 29 29 29 28 28 29 31 33 30 29 28 26 24 23 24 23 21 20 20 19 19 17 16 15 14 14 14 14 14 14 15 14 14 14 14 14 13 11 10 9 7 7 7 7 7 7 8 9 10 11 12 14 15 16 17 18 18 17 18 18 18 18 19 20 21 22 23 24 24 23 22 22 22 22 22 22 23 24 25 26 26 26
30 30 28 29 29 28 28 29 28 29 30 29 28 27 25 23 23 24 23 22 22 22 21 20 19 17 16 15 15 16 15 15 15 16 16 15 15 15 15 14 12 10 9 8 7 8 9 9 9 10 11 12 13 15 16 17 18 19 20 20 20 20 20 20 20 21 21 21 22 22 23 24 23 22 21 22 22 22 22 22 23 24 25 26 25
31 30 28 28 29 29 30 30 28 28 29 28 27 27 26 25 25 25 24 22 23 22 21 20 19 18 17 16 17 17 17 17 17 17 17 17 18 18 17 15 13 11 11 10 9 10 11 11 11 12 13 13 14 16 17 18 19 21 21 22 23 23 23 23 23 23 23 23 22 22 22 22 23 23 22 22 22 22 22 22 22 23 24 25 25
31 31 30 30 31 31 31 30 29 29 28 27 26 26 26 26 27 27 24 23 23 22 20 19 19 18 17 16 16 17 17 17 18 18 17 16 16 16 15 13 12 12 12 13 13 13 14 14 15 15 16 16 17 18 18 18 19 20 21 23 24 24 25 25 26 26 26 26 25 24 22 21 21 22 22 22 21 22 22 22 22 22 23 23 23
32 31 31 32 34 32 31 30 30 30 29 27 27 28 27 27 27 26 25 23 23 22 21 20 20 19 18 17 16 16 16 17 16 16 15 14 14 13 12 12 13 14 14 15 16 17 16 16 18 19 20 20 20 21 21 20 20 20 21 22 23 23 24 25 27 28 29 28 28 27 25 23 21 20 20 21 21 21 20 21 21 21 22 22 22
31 30 31 33 35 33 31 31 32 31 30 29 29 28 27 28 28 27 26 25 25 24 23 22 21 21 20 19 18 18 17 17 17 17 17 16 15 15 15 15 15 15 15 15 16 16 16 17 19 22 23 23 23 23 23 22 21 20 20 20 20 20 20 22 24 26 28 29 30 30 28 26 23 21 19 20 20 20 20 20 20 20 21 21 22
29 28 30 34 35 33 32 32 32 31 31 31 29 26 26 28 28 26 26 27 27 26 25 25 24 23 21 19 18 18 19 19 19 17 16 15 14 14 14 13 13 13 14 14 15 15 16 18 21 23 23 23 22 23 24 22 20 20 19 19 18 18 19 20 21 22 24 25 27 29 30 30 28 25 23 21 20 20 20 20 19 19 20 21 21
27 27 30 33 34 33 32 31 30 30 31 31 29 26 26 27 28 26 26 27 28 28 28 28 27 25 22 20 19 19 18 18 17 15 15 15 15 15 15 15 15 15 16 16 17 18 20 21 22 22 22 21 21 21 21 20 19 20 20 20 20 20 21 21 21 22 22 23 24 26 28 30 30 30 28 26 23 22 21 21 20 20 20 20 21
27 28 30 32 32 31 31 30 30 30 31 31 30 28 27 27 26 26 25 25 26 26 26 26 26 24 22 20 19 18 17 17 16 17 17 18 18 18 18 18 18 18 18 18 19 21 21 22 21 21 21 21 20 19 18 18 20 21 22 22 22 23 23 24 24 23 23 23 23 24 26 27 29 30 30 29 28 26 25 24 23 22 21 21 21
Wind_Direction
202 206 208 210 212 213 214 216 218 223 227 232 239 247 251 255 262 261 238 214 199 189 196 201 203 206 218 41 60 67 70 78 69 48 38 40 56 66 68 63 55 58 56 50 44 34 26 26 26 29 27 23 24 23 22 21 18 17 15 13 14 13 8 6 356 347 350 354 352 351 352 351 350 351 348 345 346 346 344 343 342 341 339 337 335
207 209 211 213 215 217 219 220 222 226 231 237 242 245 249 254 254 237 214 202 189 181 185 186 183 177 148 123 118 119 119 117 95 69 47 42 61 73 74 68 60 58 54 46 43 36 29 29 30 32 29 25 25 23 21 21 18 17 16 13 13 13 9 3 357 350 347 350 352 351 352 352 350 350 350 347 346 345 343 342 341 341 340 338 337
216 216 216 217 218 220 222 224 227 231 235 239 241 242 245 244 229 210 200 190 179 174 170 166 166 162 151 152 154 149 145 135 106 72 42 39 59 77 78 72 62 55 50 46 46 43 36 34 35 34 30 26 26 25 22 21 19 17 17 16 12 9 7 2 356 351 346 346 350 350 350 350 349 349 349 347 346 344 343 342 341 339 339 339 339
220 220 218 217 218 220 223 227 230 233 234 235 235 234 231 219 205 197 187 173 167 166 160 157 159 158 158 163 163 158 156 143 105 66 45 48 60 73 80 76 64 53 49 48 47 44 39 37 36 33 30 27 27 26 24 21 20 19 18 16 12 5 2 359 355 351 345 343 346 348 349 348 347 348 348 345 344 344 343 342 341 340 339 340 340
221 220 218 217 217 219 223 225 224 223 221 220 218 214 209 203 195 186 175 165 161 158 157 158 156 154 158 163 164 162 158 141 109 81 63 59 60 69 85 85 67 55 50 48 45 41 37 36 36 33 29 28 28 27 26 23 20 20 17 13 9 4 0 357 353 349 345 342 342 345 347 346 345 347 348 345 342 343 343 342 341 341 340 340 339
218 218 218 217 215 213 211 207 203 203 202 201 201 200 199 197 189 176 169 168 165 161 159 156 151 150 157 161 161 162 158 147 126 95 70 64 68 80 95 92 71 58 53 50 46 39 35 34 34 33 29 27 27 27 27 25 21 17 13 8 5 1 358 355 352 348 344 342 341 343 345 346 345 346 347 345 341 340 340 340 341 341 340 339 338
212 213 213 211 207 200 194 192 192 193 193 194 195 196 195 190 184 175 168 166 165 161 157 153 149 151 158 159 160 161 161 153 127 100 79 75 84 97 102 94 74 61 53 48 44 38 35 35 33 32 30 28 27 26 24 22 20 15 8 1 357 355 353 351 349 347 345 342 342 343 344 345 346 346 347 346 342 340 340 339 338 339 339 337 336
208 205 203 199 196 192 189 190 192 192 192 194 194 194 192 187 181 175 164 159 161 157 153 153 153 155 158 159 162 163 159 153 134 112 94 87 97 112 108 92 72 59 51 44 38 34 35 36 34 34 34 31 28 25 21 16 13 10 3 357 353 351 351 350 348 348 346 344 343 344 344 344 346 347 347 347 344 341 340 338 335 336 336 335 334
206 200 196 192 190 187 185 187 192 195 196 197 196 194 192 186 179 173 162 158 162 158 156 159 158 159 160 161 163 164 163 162 148 125 106 100 109 121 113 92 71 56 47 39 31 28 32 36 37 38 39 38 32 26 21 15 8 2 358 355 352 351 351 350 349 348 346 344 344 344 345 346 348 348 347 347 344 339 339 338 334 334 334 331 332
202 195 191 189 187 185 184 188 195 198 197 197 196 194 192 187 181 174 166 164 168 165 162 162 161 162 164 163 166 169 168 165 151 132 120 105 98 103 107 98 75 52 40 33 24 20 26 32 36 39 40 36 29 24 21 15 5 357 355 353 350 350 350 350 350 349 346 345 344 345 347 347 350 351 347 346 344 340 339 337 335 335 335 330 329
201 194 190 189 188 187 189 192 196 197 195 196 195 193 192 191 187 181 175 172 174 171 166 164 162 164 167 168 172 173 168 161 151 140 129 99 77 81 91 97 80 53 31 24 19 16 21 26 28 32 30 23 20 21 17 8 359 355 354 353 349 348 350 350 350 350 347 345 343 346 348 348 351 354 350 346 344 341 340 338 336 335 333 328 325
201 197 195 193 191 192 194 196 196 197 197 198 198 197 197 197 193 186 180 179 177 172 168 168 167 168 170 174 175 170 165 159 152 145 131 106 77 77 85 89 79 52 23 16 14 13 19 24 24 24 19 10 9 11 7 359 357 355 354 354 352 352 352 352 352 350 347 345 343 346 351 351 352 356 354 349 345 343 341 340 338 334 330 325 321
203 204 199 195 195 197 199 201 200 200 201 202 202 201 201 200 194 188 184 181 177 173 171 173 173 171 171 173 172 168 164 157 146 137 132 122 104 92 86 79 64 35 12 10 8 9 18 24 25 24 13 1 359 0 357 354 356 356 355 356 357 356 356 356 356 352 347 344 343 346 352 354 354 356 357 353 348 345 343 341 339 335 329 325 322
208 208 201 198 199 201 203 203 202 201 200 202 203 201 201 198 192 189 188 182 177 176 176 177 177 174 169 170 171 167 160 151 142 138 141 139 124 107 94 73 45 13 1 3 2 5 21 27 22 16 4 354 352 353 352 353 355 356 357 360 1 1 359 359 359 356 350 346 344 346 351 354 355 356 357 356 352 347 344 341 339 336 330 326 324
211 205 201 200 201 202 203 202 201 201 200 201 201 200 201 200 193 189 186 182 179 179 179 179 178 173 167 167 169 165 156 147 142 141 142 139 126 110 99 66 22 355 352 356 356 9 35 38 27 15 1 352 348 347 349 353 355 356 360 3 5 4 3 2 1 356 351 348 346 346 350 353 355 356 357 358 355 351 347 345 342 338 332 330 330
215 205 203 203 202 204 204 201 201 202 202 203 203 203 205 205 199 190 184 182 181 180 179 178 177 173 167 164 165 163 156 148 141 139 137 131 123 112 100 42 350 346 347 347 355 27 41 34 26 18 8 358 349 346 349 355 357 358 1 6 7 7 7 6 3 359 355 352 349 349 351 353 356 357 358 359 358 354 351 350 347 342 336 334 335
215 209 207 204 204 207 204 201 202 204 206 208 208 208 210 208 204 197 189 185 182 179 178 176 174 172 166 159 160 163 159 151 141 136 132 119 103 98 97 214 302 341 346 348 22 45 35 25 18 14 10 2 352 349 352 357 360 359 1 5 6 7 8 7 6 4 1 358 355 353 354 356 359 0 1 3 3 359 354 351 349 345 339 338 338
214 212 209 205 206 207 204 204 207 208 211 214 211 210 212 211 208 202 195 189 184 179 178 175 170 167 163 158 159 164 163 154 143 135 132 122 112 122 202 217 262 329 345 21 55 49 35 24 15 8 6 1 354 353 356 360 0 360 1 3 4 6 7 6 5 6 5 3 1 360 360 1 3 5 5 6 8 5 359 354 352 348 342 340 341
215 214 210 207 205 203 203 207 211 211 213 214 212 213 213 211 208 202 196 192 187 179 178 177 170 165 163 162 161 162 162 155 144 135 129 125 130 154 179 214 247 283 239 83 59 52 41 27 16 8 3 358 354 355 359 0 0 360 360 0 1 4 7 5 3 4 5 5 4 3 4 7 8 9 9 9 11 11 7 3 360 353 344 342 344
217 213 209 207 205 201 203 209 211 212 214 212 211 214 214 211 207 200 192 190 187 181 177 175 172 166 163 164 164 161 158 151 141 132 126 126 134 146 157 177 194 194 186 154 58 51 41 26 16 9 1 356 355 356 358 359 359 359 359 358 360 2 4 4 5 4 5 5 5 5 7 10 12 12 12 13 14 14 13 11 7 359 349 346 349
217 210 207 209 206 199 202 210 212 212 214 213 212 213 212 210 205 197 189 186 184 181 176 174 174 170 164 164 163 160 155 147 138 131 127 130 137 141 149 162 172 181 184 154 60 41 30 19 13 7 0 355 354 355 356 357 358 359 359 358 358 360 1 3 5 6 6 6 7 8 10 13 14 15 15 15 16 16 16 15 12 7 360 355 355
215 209 207 211 207 198 199 208 210 210 213 213 211 208 207 206 201 193 187 185 182 180 176 175 175 172 167 165 162 157 154 147 140 134 132 135 138 140 150 165 171 171 159 108 52 29 20 14 9 4 359 356 355 354 355 358 0 2 2 359 358 359 1 4 6 7 8 7 8 11 13 14 15 16 17 17 17 17 18 17 15 14 11 9 7
214 208 208 210 204 197 199 205 208 210 211 208 203 200 199 198 193 187 184 183 181 178 177 176 176 174 170 165 160 157 155 149 142 139 139 141 143 145 153 166 165 153 129 81 42 27 20 14 9 5 1 360 358 356 357 1 5 6 5 3 2 2 3 5 7 9 10 9 9 13 14 15 16 17 17 17 17 18 18 19 20 19 17 17 17
212 208 209 208 202 198 201 207 210 210 205 199 195 195 195 191 185 182 181 181 181 180 180 179 176 175 172 165 161 159 156 150 146 146 146 146 148 148 152 156 149 132 107 59 38 29 22 17 12 8 6 4 1 358 359 4 8 9 8 7 6 6 7 8 9 10 11 10 11 13 15 15 16 16 17 18 19 18 19 21 22 23 22 21 21
210 209 209 205 200 199 203 209 211 206 199 195 194 194 192 187 181 179 180 182 184 184 183 180 177 176 171 165 163 161 157 154 154 153 152 154 153 151 148 143 132 119 96 60 42 31 24 21 16 11 8 6 3 1 1 6 9 10 9 9 9 10 11 11 11 11 12 12 11 12 14 15 16 17 18 20 20 19 19 21 23 24 25 25 25
209 210 208 204 201 201 204 208 208 203 198 197 197 195 192 186 182 182 182 184 186 187 185 181 178 175 172 167 166 165 163 163 163 161 163 163 157 151 147 143 137 127 106 74 49 33 25 21 15 12 10 7 5 3 1 4 7 8 8 10 12 14 14 13 13 12 12 11 10 10 12 13 15 18 19 20 21 21 20 20 22 24 24 25 25
209 210 207 203 202 204 206 205 203 199 198 197 195 193 190 186 184 185 185 187 189 189 189 186 181 176 173 172 171 171 173 174 171 169 172 169 163 161 162 163 168 172 148 65 44 29 22 18 13 11 11 8 6 4 1 1 4 6 8 10 12 15 16 16 15 13 12 10 9 8 9 11 13 17 20 20 21 21 21 21 22 23 24 24 24
211 210 206 203 205 207 206 204 200 198 197 195 192 190 188 186 188 191 192 193 194 193 192 190 185 178 175 176 178 180 183 182 177 174 178 175 171 176 180 186 194 200 219 308 12 14 13 12 10 8 9 7 6 5 3 3 3 4 6 9 11 14 16 16 16 16 14 12 9 7 7 9 11 14 18 20 20 21 21 22 22 23 25 25 23
211 209 205 205 208 207 203 202 201 197 194 192 190 191 191 192 193 194 195 197 197 196 194 189 181 177 178 181 186 189 190 188 183 184 186 179 178 185 191 196 201 199 206 251 352 3 3 4 3 2 5 6 5 4 4 4 4 3 3 5 7 9 13 15 16 16 15 13 11 8 6 7 8 10 13 17 19 20 21 22 22 23 25 26 25
210 208 206 208 209 205 202 201 200 196 193 191 191 192 194 194 192 190 191 193 194 195 193 186 179 179 182 186 194 198 198 197 196 198 199 192 189 197 204 206 205 197 189 250 3 3 358 356 355 358 1 2 2 1 1 1 1 360 359 0 2 4 8 12 14 14 13 13 12 9 7 6 7 7 8 12 16 18 20 22 23 23 24 24 25
207 206 207 210 208 204 202 201 198 195 194 194 194 193 191 189 188 187 190 192 195 197 199 200 205 204 195 196 205 209 208 207 206 208 211 209 207 213 221 223 220 217 229 278 334 353 354 352 353 356 358 358 357 357 357 358 358 357 356 356 357 359 2 7 10 12 11 11 11 11 9 7 6 6 6 7 11 16 18 20 22 23 24 24 24
207 206 209 211 210 206 203 201 198 196 196 197 196 193 189 188 188 190 192 196 200 204 206 207 213 218 214 212 215 216 215 214 212 212 216 218 219 225 230 230 228 231 246 268 303 330 340 344 347 353 356 355 353 353 353 354 355 355 353 353 353 355 358 1 6 9 9 9 9 10 10 9 7 6 5 5 7 11 15 18 20 21 23 24 24
209 208 209 210 210 207 205 203 201 199 199 199 195 191 191 192 192 192 193 196 200 205 209 210 214 222 224 222 219 217 217 217 216 218 220 221 223 229 234 234 234 239 250 267 293 316 331 339 343 350 355 354 351 349 349 350 351 352 352 352 351 352 354 357 0 4 6 8 7 7 8 9 8 6 6 5 6 7 11 15 17 18 20 22 22
215 212 209 209 210 209 207 206 204 203 202 200 195 194 196 198 197 195 196 198 201 205 208 210 214 220 225 224 221 218 217 218 218 220 222 224 227 231 236 239 243 249 258 269 285 303 320 332 338 346 353 355 352 349 346 345 346 347 349 351 351 351 351 352 355 358 1 4 5 5 6 7 8 7 6 5 5 6 8 10 14 16 17 19 20
216 213 210 211 212 211 210 209 207 206 205 202 199 199 200 200 200 201 203 204 206 209 210 212 215 219 222 222 220 218 218 219 220 222 223 226 229 232 236 243 251 258 265 273 283 294 310 324 333 339 346 351 352 350 346 342 340 341 343 347 350 350 350 350 351 353 356 359 2 3 4 5 6 7 6 5 4 4 5 7 9 12 14 16 17
211 208 210 213 215 215 214 214 212 211 208 204 202 202 201 202 204 207 210 213 216 218 218 219 221 223 223 221 218 217 218 220 221 223 225 227 230 233 239 248 258 264 271 277 281 288 302 318 329 334 338 343 347 349 346 341 337 336 337 340 344 347 348 348 349 351 352 354 356 359 1 2 4 5 6 5 4 3 3 4 6 9 11 13 15
210 206 208 213 217 218 217 217 217 214 209 206 204 203 204 207 211 213 216 220 225 229 230 229 228 226 223 218 214 214 217 219 219 222 226 229 231 236 245 256 267 273 278 279 278 282 294 311 324 332 336 338 341 343 344 341 337 334 333 334 336 341 344 345 346 348 349 350 352 354 357 359 1 2 3 4 4 3 2 3 5 7 8 10 12
213 208 208 212 217 218 217 219 220 215 209 206 206 207 210 213 215 217 221 228 235 236 232 229 227 225 219 214 210 210 212 214 216 221 225 225 227 238 255 269 281 287 288 285 281 282 290 302 316 326 331 334 337 338 339 338 336 334 333 331 331 334 337 341 343 345 346 347 348 350 352 355 357 359 1 2 2 2 1 0 1 4 7 8 9
213 210 210 215 219 218 217 220 220 214 209 207 209 212 215 217 217 221 228 234 234 228 220 217 218 216 210 206 206 208 210 214 219 224 226 228 236 253 269 283 295 299 297 289 280 277 283 293 307 319 326 330 334 334 333 334 334 334 333 332 332 333 334 336 338 341 343 345 346 347 348 349 352 355 358 360 0 0 0 359 358 360 3 6 6
212 209 212 218 221 219 219 222 220 213 209 209 211 214 216 218 221 225 227 225 219 212 208 209 211 208 203 203 208 213 217 225 231 234 235 241 253 264 274 286 300 305 301 292 280 274 278 289 303 313 321 327 331 331 331 332 331 331 331 333 335 337 337 336 337 340 342 343 343 343 343 344 346 349 352 356 358 358 358 358 357 356 358 2 4
212 208 212 217 218 217 219 222 220 213 209 211 215 217 218 221 225 223 219 214 209 207 208 211 212 208 204 207 214 222 231 241 247 246 247 253 260 265 270 282 296 303 303 298 287 278 278 288 303 313 320 327 330 330 330 330 329 329 330 332 335 339 342 342 342 343 343 343 342 339 338 338 340 343 346 350 354 355 356 356 356 355 355 356 0
212 209 212 214 213 213 215 217 216 213 212 215 219 220 222 226 225 219 214 212 211 210 213 215 215 212 209 212 219 228 238 246 249 249 251 257 261 262 265 275 288 297 299 298 293 284 281 290 304 313 319 324 326 327 327 328 327 327 328 329 332 337 342 345 344 342 342 344 343 340 336 333 334 337 340 344 348 351 352 353 354 354 353 353 355
213 211 211 209 208 210 211 210 211 212 213 216 221 223 227 229 225 218 217 218 217 217 220 221 219 217 217 221 226 233 239 244 246 248 254 261 263 263 264 270 280 286 287 287 291 292 291 298 309 316 319 321 321 321 321 322 322 321 321 322 323 327 332 336 337 336 337 340 343 343 338 332 329 331 334 338 342 346 349 350 351 352 353 352 352
213 212 209 206 206 208 208 208 210 213 214 216 221 225 228 228 224 222 224 225 224 226 229 229 226 225 226 228 233 239 244 248 251 254 259 263 263 264 267 270 273 273 275 279 287 291 292 298 308 314 317 319 320 319 319 318 317 315 314 314 314 316 320 324 326 327 329 333 338 341 340 335 330 327 329 332 335 339 343 347 348 349 350 351 351
211 210 206 203 204 207 207 208 212 213 214 218 224 227 228 229 228 226 228 229 229 230 233 232 230 230 233 237 243 248 251 254 257 260 263 266 269 271 272 270 266 262 266 273 278 282 287 292 299 306 310 313 315 316 317 316 314 312 311 310 309 311 314 316 318 319 320 324 329 334 336 336 333 329 328 329 331 333 336 340 344 346 347 348 350
207 207 205 202 201 205 208 209 211 213 215 221 225 226 227 230 230 229 229 231 231 233 234 233 233 236 240 245 249 252 254 256 260 264 266 270 274 273 268 262 257 257 263 269 273 278 283 287 291 296 300 303 305 307 309 310 310 309 307 305 305 308 311 313 313 313 314 316 320 323 327 332 334 333 330 328 328 329 331 334 337 341 343 345 346
206 209 208 200 197 201 207 210 210 211 215 220 224 227 230 232 231 229 230 232 232 234 235 236 238 242 246 248 250 252 255 259 263 266 267 269 272 269 263 259 260 263 268 271 274 277 280 283 286 290 293 295 298 300 301 303 307 308 306 304 303 304 307 310 310 310 310 311 311 313 316 321 327 331 330 329 327 327 327 329 331 333 336 339 341
210 213 209 200 197 201 206 208 208 210 214 220 226 230 233 233 232 232 235 236 236 237 238 239 242 247 251 251 251 252 257 262 268 270 270 269 270 270 269 269 271 272 274 274 275 276 279 282 286 289 291 293 294 295 296 301 309 313 311 308 305 304 305 307 308 309 310 309 308 308 308 311 315 320 324 326 326 325 324 326 328 329 329 332 334
215 216 208 200 197 199 202 205 209 213 218 222 226 231 234 233 233 236 239 239 239 242 244 245 247 250 252 253 254 257 262 267 271 272 270 268 269 271 272 273 274 274 275 276 277 278 281 284 287 290 292 294 294 293 293 299 309 314 313 312 311 311 310 309 309 308 307 306 305 305 304 304 305 308 312 316 319 320 320 322 324 325 325 326 328
219 217 207 199 197 200 203 207 213 217 220 223 228 234 236 234 234 237 240 241 243 247 249 249 249 250 253 258 263 265 266 267 267 267 268 268 269 270 270 271 273 275 276 277 279 281 284 286 288 289 291 294 297 297 296 300 308 312 313 314 314 314 313 314 314 313 310 305 301 300 301 302 301 301 303 306 309 311 313 316 317 318 320 321 323
216 210 202 198 200 202 204 208 213 217 221 226 232 237 237 236 235 236 238 241 244 247 248 248 248 249 255 262 266 265 264 265 267 270 272 272 272 272 272 273 275 276 276 277 281 284 287 289 290 290 292 297 301 301 299 300 304 309 314 316 316 314 314 314 314 315 315 311 305 299 298 298 299 298 298 299 301 303 305 307 309 310 311 313 315